Jacksonville NAS, FL

6:09 PM EST on February 23, 2018 (GMT -0500)
Jacksonville Naval Air Station

Weather History for KNIP - March, 2013

Change the Weather History Date:

Sunday, March 31, 2013

  Actual Average Record
Temperature  
Mean Temperature 69 °F -  
Max Temperature 81 °F 75 °F 89 °F (2016)
Min Temperature 57 °F 57 °F 41 °F (2003)
Cooling Degree Days 4    
Growing Degree Days 19 (Base 50)    
Moisture  
Dew Point 49 °F    
Average Humidity 50    
Maximum Humidity 72    
Minimum Humidity 34    
Precipitation  
Precipitation 0.00 in - - ()
Sea Level Pressure  
Sea Level Pressure 30.06 in    
Wind  
Wind Speed 11 mph (SSW)    
Max Wind Speed 20 mph    
Max Gust Speed 25 mph    
Visibility 10 miles    
Events      
Averages and records for this station are not official NWS values.
T = Trace of Precipitation, MM = Missing Value Source: NWS Daily Summary

Daily Weather History Graph

Daily Weather History Graph

Search for Another Location

Airport or City:

Trip Planner

Search our weather history database for the weather conditions in past years. The results will help you decide how hot, cold, wet, or windy it might be!

Date:

Astronomy

Mar. 31, 2013 Rise Set
Actual Time 7:16 AM EDT 7:45 PM EDT
Civil Twilight 6:52 AM EDT 8:09 PM EDT
Nautical Twilight 6:24 AM EDT 8:37 PM EDT
Astronomical Twilight 5:55 AM EDT 9:06 PM EDT
Moon No Moon Rise 10:21 AM EDT (3/31)
Length of Visible Light 13h 16m
Length of Day
12h 28m
Waning Gibbous, 78% of the Moon is Illuminated
Mar 31
Waning Gibbous
Apr 3
Last Quarter
Apr 10
New
Apr 18
First Quarter
Apr 25
Full

Hourly Weather History & Observations

Time (EDT) Temp. Dew Point Humidity Pressure Visibility Wind Dir Wind Speed Gust Speed Precip Events Conditions
12:53 AM 63.0 °F 39.9 °F 43% 30.13 in 10.0 mi SW 5.8 mph - N/A   Mostly Cloudy
1:53 AM 62.1 °F 45.0 °F 53% 30.13 in 10.0 mi SSE 8.1 mph - N/A   Scattered Clouds
2:53 AM 61.0 °F 46.0 °F 58% 30.12 in 10.0 mi South 9.2 mph - N/A   Mostly Cloudy
3:53 AM 60.1 °F 46.0 °F 60% 30.11 in 10.0 mi South 8.1 mph - N/A   Scattered Clouds
4:53 AM 59.0 °F 46.0 °F 62% 30.11 in 10.0 mi South 11.5 mph - N/A   Partly Cloudy
5:53 AM 57.9 °F 48.9 °F 72% 30.12 in 10.0 mi SSW 5.8 mph - N/A   Partly Cloudy
6:53 AM 60.1 °F 50.0 °F 69% 30.12 in 10.0 mi South 11.5 mph - N/A   Mostly Cloudy
7:53 AM 60.1 °F 50.0 °F 69% 30.12 in 10.0 mi South 12.7 mph - N/A   Scattered Clouds
8:53 AM 63.0 °F 50.0 °F 63% 30.12 in 10.0 mi South 8.1 mph - N/A   Mostly Cloudy
9:53 AM 66.0 °F 50.0 °F 56% 30.12 in 10.0 mi South 13.8 mph - N/A   Scattered Clouds
10:53 AM 72.0 °F 46.0 °F 40% 30.12 in 10.0 mi SW 19.6 mph 25.3 mph N/A   Mostly Cloudy
11:53 AM 73.9 °F 48.9 °F 41% 30.10 in 10.0 mi SSW 19.6 mph 24.2 mph N/A   Partly Cloudy
12:53 PM 75.9 °F 48.9 °F 38% 30.08 in 10.0 mi SSW 16.1 mph 21.9 mph N/A   Scattered Clouds
1:53 PM 78.1 °F 48.9 °F 36% 30.05 in 10.0 mi SW 12.7 mph 21.9 mph N/A   Mostly Cloudy
2:53 PM 79.0 °F 50.0 °F 36% 30.02 in 10.0 mi SSW 16.1 mph 20.7 mph N/A   Mostly Cloudy
3:53 PM 81.0 °F 50.0 °F 34% 30.00 in 10.0 mi SW 16.1 mph - N/A   Mostly Cloudy
4:53 PM 80.1 °F 52.0 °F 38% 29.99 in 10.0 mi SW 13.8 mph - N/A   Mostly Cloudy
5:53 PM 80.1 °F 51.1 °F 36% 29.98 in 10.0 mi SW 16.1 mph 21.9 mph N/A   Scattered Clouds
6:53 PM 78.1 °F 52.0 °F 40% 29.98 in 10.0 mi WSW 13.8 mph - N/A   Mostly Cloudy
7:53 PM 75.0 °F 50.0 °F 41% 29.98 in 10.0 mi SW 11.5 mph - N/A   Scattered Clouds
8:53 PM 72.0 °F 48.9 °F 44% 29.98 in 10.0 mi SW 12.7 mph - N/A   Partly Cloudy
9:53 PM 70.0 °F 48.9 °F 47% 29.99 in 10.0 mi SW 15.0 mph - N/A   Partly Cloudy
10:53 PM 68.0 °F 54.0 °F 61% 30.01 in 10.0 mi WSW 12.7 mph - N/A   Partly Cloudy
11:53 PM 66.0 °F 55.9 °F 70% 30.01 in 10.0 mi SW 9.2 mph - N/A   Partly Cloudy